When you browse on this site, cookies collect data to enhance your experience and personalize the content and advertising you see.
Visit our Privacy Policy to learn more. By continuing to use the site, you agree to this use of cookies and data.
  • In Italy
  • List of Countries
  • For 7 days
  • Water Temperature
  • Satellite Maps
  • Weather Map
  • Weather Widgets
  • user-avatar
    Login

    Hourly Weather Hobart

    Today, 20 January, Sunday

    Time Temperature Precipitation Wind Pressure Humidity
    00:00 +14°C° 0 mm 3 mps 748 mmHg 76%
    01:00 +14°C° 0 mm 3 mps 748 mmHg 77%
    02:00 +15°C° 0 mm 2 mps 748 mmHg 79%
    03:00 +15°C° 0 mm 2 mps 748 mmHg 80%
    04:00 +14°C° 0 mm 2 mps 747 mmHg 82%
    05:00 +16°C° 0 mm 2 mps 748 mmHg 77%
    06:00 +17°C° 0 mm 2 mps 748 mmHg 72%
    07:00 +18°C° 0 mm 2 mps 748 mmHg 66%
    08:00 +20°C° 0 mm 3 mps 749 mmHg 61%
    09:00 +22°C° 0 mm 3 mps 749 mmHg 55%
    10:00 +24°C° 0 mm 3 mps 749 mmHg 49%
    11:00 +25°C° 0 mm 3 mps 749 mmHg 46%
    12:00 +26°C° 0 mm 3 mps 749 mmHg 43%
    13:00 +27°C° 0 mm 3 mps 749 mmHg 40%
    14:00 +27°C° 0 mm 3 mps 749 mmHg 40%
    15:00 +28°C° 0 mm 3 mps 749 mmHg 40%
    16:00 +28°C° 0 mm 3 mps 749 mmHg 39%
    17:00 +26°C° 0 mm 2 mps 749 mmHg 45%
    18:00 +24°C° 0 mm 2 mps 750 mmHg 51%
    19:00 +23°C° 0 mm 1 mps 750 mmHg 56%
    20:00 +21°C° 0 mm 1 mps 750 mmHg 66%
    21:00 +18°C° 0 mm 1 mps 750 mmHg 75%
    22:00 +15°C° 0 mm 1 mps 750 mmHg 85%
    23:00 +15°C° 0 mm 1 mps 750 mmHg 88%

    Tomorrow, 21 January, Monday

    Time Temperature Precipitation Wind Pressure Humidity
    00:00 +14°C° 0 mm 1 mps 750 mmHg 90%
    01:00 +14°C° 0 mm 1 mps 749 mmHg 93%
    02:00 +14°C° 0 mm 1 mps 749 mmHg 94%
    03:00 +13°C° 0 mm 1 mps 749 mmHg 95%
    04:00 +13°C° 0 mm 1 mps 749 mmHg 96%
    05:00 +14°C° 0 mm 1 mps 749 mmHg 88%
    06:00 +16°C° 0 mm 1 mps 749 mmHg 81%
    07:00 +18°C° 0 mm 1 mps 749 mmHg 74%
    08:00 +21°C° 0 mm 1 mps 749 mmHg 63%
    09:00 +24°C° 0 mm 1 mps 748 mmHg 52%
    10:00 +27°C° 0 mm 1 mps 748 mmHg 41%
    11:00 +29°C° 0 mm 1 mps 748 mmHg 35%
    12:00 +30°C° 0 mm 2 mps 747 mmHg 29%
    13:00 +32°C° 0 mm 2 mps 747 mmHg 23%
    14:00 +33°C° 0 mm 3 mps 747 mmHg 24%
    15:00 +31°C° 0 mm 3 mps 746 mmHg 25%
    16:00 +31°C° 0 mm 3 mps 746 mmHg 26%
    17:00 +28°C° 0 mm 3 mps 746 mmHg 35%
    18:00 +26°C° 0 mm 2 mps 746 mmHg 43%
    19:00 +24°C° 0 mm 2 mps 746 mmHg 52%
    20:00 +22°C° 0 mm 1 mps 746 mmHg 58%
    21:00 +19°C° 0 mm 1 mps 746 mmHg 63%
    22:00 +16°C° 0 mm 1 mps 747 mmHg 68%
    23:00 +16°C° 0 mm 1 mps 746 mmHg 67%

    Day after tomorrow, 22 January, Tuesday

    Time Temperature Precipitation Wind Pressure Humidity
    00:00 +15°C° 0 mm 1 mps 746 mmHg 65%
    01:00 +15°C° 0 mm 1 mps 745 mmHg 64%
    02:00 +14°C° 0 mm 1 mps 745 mmHg 65%
    03:00 +14°C° 0 mm 1 mps 745 mmHg 67%
    04:00 +13°C° 0 mm 1 mps 745 mmHg 68%
    05:00 +15°C° 0 mm 1 mps 745 mmHg 64%
    06:00 +16°C° 0 mm 1 mps 745 mmHg 61%
    07:00 +18°C° 0 mm 2 mps 745 mmHg 57%
    08:00 +21°C° 0 mm 2 mps 745 mmHg 48%
    09:00 +25°C° 0 mm 2 mps 745 mmHg 39%
    10:00 +28°C° 0 mm 2 mps 745 mmHg 30%
    11:00 +30°C° 0 mm 2 mps 745 mmHg 26%
    12:00 +31°C° 0 mm 3 mps 744 mmHg 23%
    13:00 +34°C° 0 mm 3 mps 744 mmHg 20%
    14:00 +34°C° 0 mm 3 mps 744 mmHg 21%
    15:00 +33°C° 0 mm 3 mps 743 mmHg 22%
    16:00 +33°C° 0 mm 3 mps 743 mmHg 24%
    17:00 +30°C° 0 mm 2 mps 743 mmHg 30%
    18:00 +27°C° 0 mm 2 mps 743 mmHg 36%
    19:00 +25°C° 0 mm 1 mps 743 mmHg 43%
    20:00 +23°C° 0 mm 1 mps 743 mmHg 49%
    21:00 +21°C° 0 mm 1 mps 743 mmHg 56%
    22:00 +19°C° 0 mm 1 mps 743 mmHg 63%
    23:00 +18°C° 0 mm 1 mps 743 mmHg 68%

    23 January, Wednesday

    Time Temperature Precipitation Wind Pressure Humidity
    00:00 +18°C° 0 mm 1 mps 743 mmHg 72%
    01:00 +17°C° 0 mm 2 mps 743 mmHg 77%
    02:00 +16°C° 0.1 mm 3 mps 744 mmHg 79%
    03:00 +14°C° 0.1 mm 4 mps 745 mmHg 81%
    04:00 +13°C° 0.1 mm 5 mps 745 mmHg 83%
    05:00 +13°C° 0 mm 5 mps 746 mmHg 78%
    06:00 +12°C° 0 mm 5 mps 747 mmHg 73%
    07:00 +12°C° 0 mm 4 mps 748 mmHg 69%
    08:00 +13°C° 0 mm 4 mps 748 mmHg 61%
    09:00 +14°C° 0 mm 4 mps 749 mmHg 54%
    10:00 +16°C° 0 mm 3 mps 749 mmHg 46%
    11:00 +17°C° 0 mm 4 mps 749 mmHg 43%
    12:00 +18°C° 0 mm 4 mps 749 mmHg 39%
    13:00 +19°C° 0 mm 4 mps 749 mmHg 36%
    14:00 +19°C° 0 mm 4 mps 749 mmHg 38%
    15:00 +18°C° 0 mm 4 mps 749 mmHg 40%
    16:00 +18°C° 0 mm 4 mps 749 mmHg 43%
    17:00 +15°C° 0 mm 4 mps 750 mmHg 47%
    18:00 +14°C° 0 mm 3 mps 750 mmHg 51%
    19:00 +13°C° 0 mm 3 mps 751 mmHg 55%
    20:00 +13°C° 0 mm 2 mps 751 mmHg 60%
    21:00 +12°C° 0 mm 2 mps 751 mmHg 65%
    22:00 +11°C° 0 mm 1 mps 752 mmHg 71%
    23:00 +11°C° 0 mm 1 mps 751 mmHg 72%

    24 January, Thursday

    Time Temperature Precipitation Wind Pressure Humidity
    00:00 +10°C° 0 mm 2 mps 751 mmHg 74%
    01:00 +9°C° 0 mm 2 mps 751 mmHg 76%
    02:00 +9°C° 0 mm 2 mps 750 mmHg 77%
    03:00 +10°C° 0 mm 2 mps 750 mmHg 78%
    04:00 +10°C° 0 mm 2 mps 750 mmHg 79%
    05:00 +11°C° 0 mm 3 mps 750 mmHg 74%
    06:00 +12°C° 0 mm 3 mps 750 mmHg 70%
    07:00 +14°C° 0 mm 3 mps 750 mmHg 65%
    08:00 +17°C° 0 mm 3 mps 749 mmHg 59%
    09:00 +19°C° 0 mm 4 mps 749 mmHg 52%
    10:00 +21°C° 0 mm 4 mps 749 mmHg 45%
    11:00 +23°C° 0 mm 4 mps 748 mmHg 42%
    12:00 +26°C° 0 mm 5 mps 748 mmHg 38%
    13:00 +28°C° 0 mm 5 mps 747 mmHg 35%
    14:00 +28°C° 0 mm 6 mps 746 mmHg 36%
    15:00 +29°C° 0 mm 6 mps 745 mmHg 37%
    16:00 +29°C° 0 mm 7 mps 744 mmHg 38%
    17:00 +28°C° 0 mm 7 mps 743 mmHg 42%
    18:00 +27°C° 0 mm 6 mps 743 mmHg 47%
    19:00 +26°C° 0 mm 6 mps 742 mmHg 51%
    20:00 +24°C° 0 mm 6 mps 742 mmHg 55%
    21:00 +23°C° 0 mm 6 mps 741 mmHg 59%
    22:00 +22°C° 0 mm 5 mps 741 mmHg 64%
    23:00 +22°C° 0 mm 5 mps 740 mmHg 64%

    25 January, Friday

    Time Temperature Precipitation Wind Pressure Humidity
    00:00 +23°C° 0 mm 5 mps 739 mmHg 63%
    01:00 +23°C° 0 mm 4 mps 738 mmHg 63%
    02:00 +26°C° 0 mm 5 mps 737 mmHg 58%
    03:00 +28°C° 0 mm 6 mps 736 mmHg 53%
    04:00 +30°C° 0 mm 6 mps 734 mmHg 48%
    05:00 +30°C° 0 mm 6 mps 734 mmHg 46%
    06:00 +32°C° 0 mm 5 mps 734 mmHg 44%
    07:00 +33°C° 0 mm 5 mps 734 mmHg 42%
    08:00 +34°C° 0 mm 6 mps 734 mmHg 35%
    09:00 +36°C° 0 mm 7 mps 734 mmHg 28%
    10:00 +39°C° 0 mm 8 mps 734 mmHg 22%
    11:00 +38°C° 0 mm 8 mps 734 mmHg 23%
    12:00 +37°C° 0 mm 8 mps 734 mmHg 23%
    13:00 +35°C° 0 mm 8 mps 733 mmHg 24%
    14:00 +32°C° 0 mm 8 mps 734 mmHg 31%
    15:00 +29°C° 0 mm 9 mps 734 mmHg 39%
    16:00 +26°C° 0 mm 9 mps 734 mmHg 46%
    17:00 +22°C° 0 mm 9 mps 736 mmHg 53%
    18:00 +20°C° 0 mm 8 mps 738 mmHg 59%
    19:00 +17°C° 0 mm 7 mps 739 mmHg 66%
    20:00 +16°C° 0 mm 7 mps 741 mmHg 65%
    21:00 +15°C° 0 mm 6 mps 742 mmHg 65%
    22:00 +15°C° 0 mm 6 mps 744 mmHg 64%
    23:00 +14°C° 0 mm 5 mps 744 mmHg 68%
    Show more